Atari, India

11:04 PM IST on February 27, 2017 (GMT +0530)
Amritsar

Weather History for VIAR - February, 2013

Change the Weather History Date:

Sunday, February 10, 2013

  Actual Average Record
Temperature  
Mean Temperature 54 °F -  
Max Temperature 69 °F 67 °F 78 °F (2006)
Min Temperature 39 °F 45 °F 33 °F (2008)
Degree Days  
Heating Degree Days 11    
Growing Degree Days 4 (Base 50)    
Moisture  
Dew Point 51 °F    
Average Humidity 82    
Maximum Humidity 100    
Minimum Humidity 42    
Precipitation  
Precipitation 0.00 in - - ()
Sea Level Pressure  
Sea Level Pressure 30.06 in    
Wind  
Wind Speed 1 mph ()    
Max Wind Speed 7 mph    
Max Gust Speed 16 mph    
Visibility 1.7 miles    
Events Fog    
Averages and records for this station are not official NWS values.
T = Trace of Precipitation, MM = Missing Value Source: Averaged Metar Reports

Daily Weather History Graph

Daily Weather History Graph

Search for Another Location

Airport or City:

Trip Planner

Search our weather history database for the weather conditions in past years. The results will help you decide how hot, cold, wet, or windy it might be!

Date:

Astronomy

Feb. 10, 2013 Rise Set
Actual Time 7:16 AM IST 6:13 PM IST
Civil Twilight 6:51 AM IST 6:38 PM IST
Nautical Twilight 6:23 AM IST 7:06 PM IST
Astronomical Twilight 5:54 AM IST 7:35 PM IST
Moon 6:52 AM IST (2/10) 6:28 PM IST (2/10)
Length of Visible Light 11h 46m
Length of Day
10h 56m
Waning Crescent, 0% of the Moon is Illuminated
Feb 10
Waning Crescent
Feb 10
New
Feb 18
First Quarter
Feb 26
Full
Mar 5
Last Quarter

Hourly Weather History & Observations

Time (IST) Temp. Dew Point Humidity Pressure Visibility Wind Dir Wind Speed Gust Speed Precip Events Conditions
12:30 AM 50.0 °F 50.0 °F 100% 30.01 in 1.0 mi Calm Calm - N/A   Mist
4:30 AM 44.6 °F 44.6 °F 100% 30.01 in 1.0 mi Calm Calm - N/A   Mist
5:30 AM 43 °F 43 °F 100% 30.04 in 0 mi Calm Calm - - Fog Partial Fog
6:00 AM - - N/A% 30.01 in - Calm Calm - N/A Fog Fog
6:30 AM 41.0 °F 41.0 °F 100% 30.04 in - Calm Calm - N/A Fog Fog
7:00 AM 41.0 °F 41.0 °F 100% 30.04 in - Calm Calm - N/A Fog Fog
7:30 AM 41.0 °F 41.0 °F 100% 30.04 in - Calm Calm - N/A Fog Fog
8:00 AM 41.0 °F 41.0 °F 100% 30.06 in - Calm Calm - N/A Fog Fog
8:30 AM 44 °F 44 °F 100% 30.10 in 0 mi Calm Calm - - Fog Partial Fog
8:30 AM 44.6 °F 44.6 °F 100% 30.06 in 0.3 mi Calm Calm - N/A Fog Fog
9:00 AM 48.2 °F 48.2 °F 100% 30.06 in 0.3 mi Calm Calm - N/A Fog Fog
10:00 AM 59.0 °F 59.0 °F 100% 30.09 in 0.7 mi Calm Calm - N/A   Mist
11:00 AM 64.4 °F 57.2 °F 77% 30.09 in 2.2 mi Calm Calm - N/A   Haze
11:30 AM 63 °F 56 °F 72% 30.10 in 1 mi SSW 3.5 mph - -   Haze
11:30 AM 62.6 °F 55.4 °F 77% 30.09 in 2.2 mi SSW 3.5 mph - N/A   Haze
12:00 PM 64.4 °F 53.6 °F 68% 30.09 in 2.2 mi Variable 1.2 mph - N/A   Haze
12:30 PM 66.2 °F 53.6 °F 64% 30.09 in 2.5 mi West 5.8 mph - N/A   Haze
1:00 PM 66.2 °F 51.8 °F 60% 30.09 in 3.1 mi West 4.6 mph - N/A   Haze
1:30 PM 66.2 °F 51.8 °F 60% 30.09 in 3.1 mi West 6.9 mph - N/A   Haze
2:00 PM 68.0 °F 51.8 °F 56% 30.06 in 3.1 mi SW 4.6 mph - N/A   Haze
2:30 PM 68 °F 50 °F 42% 30.05 in 2 mi WSW 4.6 mph - -   Haze
2:30 PM 68.0 °F 50.0 °F 52% 30.06 in 3.1 mi Variable 4.6 mph 16.1 mph N/A   Haze
3:00 PM 69.8 °F 46.4 °F 43% 30.06 in 3.7 mi WNW 4.6 mph - N/A   Unknown
3:30 PM 68.0 °F 46.4 °F 46% 30.04 in 3.7 mi West 4.6 mph - N/A   Unknown
4:00 PM 68.0 °F 50.0 °F 52% 30.04 in 3.7 mi Variable 2.3 mph - N/A   Unknown
4:30 PM 68.0 °F 51.8 °F 56% 30.04 in 3.1 mi Variable 3.5 mph - N/A   Haze
5:00 PM 68.0 °F 53.6 °F 60% 30.04 in 2.5 mi Variable 1.2 mph - N/A   Haze
5:30 PM 66.2 °F 55.4 °F 68% 30.04 in 1.9 mi NW 3.5 mph - N/A   Haze
6:00 PM 64.4 °F 57.2 °F 77% 30.04 in 1.9 mi Calm Calm - N/A   Haze
6:30 PM 62.6 °F 57.2 °F 82% 30.04 in 1.9 mi Calm Calm - N/A   Haze
7:30 PM 59.0 °F 59.0 °F 100% 30.04 in 1.2 mi Calm Calm - N/A   Mist
8:00 PM 57.2 °F 57.2 °F 100% 30.04 in 1.0 mi Calm Calm - N/A   Mist
8:30 PM 56 °F 56 °F 100% 30.04 in 1 mi Calm Calm - -   Mist
8:30 PM 57.2 °F 57.2 °F 100% 30.04 in 1.0 mi Calm Calm - N/A   Mist
9:00 PM 55.4 °F 55.4 °F 100% 30.04 in 1.0 mi Calm Calm - N/A   Mist
10:00 PM 51.8 °F 51.8 °F 100% 30.06 in 0.9 mi Calm Calm - N/A   Mist
10:30 PM 51.8 °F 51.8 °F 100% 30.06 in 0.7 mi Calm Calm - N/A   Mist
11:30 PM 50 °F 50 °F 100% 30.07 in 0 mi Calm Calm - - Fog Patches of Fog
11:30 PM 51.8 °F 51.8 °F 100% 30.06 in 0.5 mi Calm Calm - N/A Fog Shallow Fog